User: anonymous   Login
Location: Habighorst
(52.7089°N, 10.2278°E)
Time: 23:45:16
(UTC+00:00)
Language:

Cosmos 2082 Rocket - Orbit

View from above orbital plane
View from above orbital plane
View from above satellite
View from above satellite

Ground track
Ground track

The orbit is defined by the following mean orbital elements,

1 20625U          26065.65744279 +.00000000 +00000-0 -96457-4 0 00007
2 20625  70.9993 304.2832 0016205 303.6768  56.2809 14.15013556    04
Epoch (UTC): 06 March 2026 15:46:43
Eccentricity: 0.0016205
inclination: 70.9993°
perigee height: 831 km
apogee height: 854 km
right ascension of ascending node: 304.2832°
argument of perigee: 303.6768°
revolutions per day: 14.15013556
mean anomaly at epoch: 56.2809°

The dashed part of the orbit path shows where the satellite is in the earth's shadow,  

DLR